BREEZE-M DEB (TANK), 40366

Orbit data source: Space-Track

BREEZE-M DEB (TANK), 40366 is space debris in HEO originally from a launch on Sat, 27 Dec 2014 UTC launched from the Tyuratam Missile And Space Complex (TTMTR). Debris objects in space refer to the collection of defunct objects orbiting the Earth. Examples of debris include non-operational satellites, rocket bodies, and fragments generated from explosions, collisions, or faulty payload assembly.

Loading next visibility...
Identifier
40366, 2014-089C
Orbit
HEO
Country
Flag of CISCIS
Related business
Manufacturer
Khrunichev
Mission
Spacecraft
Bus & Motor
BRIZ TANK, Unknown motor
Mass
~1,000 kg wet, 1,000 kg dry
Launch date (UTC)
2014-12-27 (11 years ago)
Launch vehicle
Unknown
Launch site
Tyuratam Missile And Space Complex (TTMTR)
Object type
Payload
Rocket body
Debris
Shape & HBR
Torus, 2.0 m
Radar Cross Section
8.218 m², Large (>1 m²)

Expand to show TLE details & history
Last TLE update: 15 hours ago

TLE from 15 hours ago
0 BREEZE-M DEB (TANK)
1 40366U 14089C   26126.12475869  .00000814  00000-0  30325-3 0  9999
2 40366  49.5521  70.2212 5120636 230.8079  71.4300  5.36987246217468
Epoch: 2026-05-06T02:59Z
TLE epoch observation values (Epoch: 2026-05-06T02:59:39.150Z)
Latitude
0.00001°
Longitude
161.3113°
Altitude
8,662.143 km
Speed
4.907 km/s
True Right ascension
04h 40m 51s
True Declination
0° 00' 00"
Sunlit
Object was in daylight at epoch
Visualization orbit readout
Latitude
Unknown
Longitude
Unknown
Altitude
Unknown
Speed
Unknown
Apparent Right ascension
Unknown
Apparent Declination
Unknown
Sunlit
N/A
Visualization observer readout
Local Sidereal Time
02:10:41
Azimuth
Unknown
Elevation
Unknown
Doppler factor
Unknown
Orbital elements
Apogee altitude
14,451.598 km
Perigee altitude
343.529 km
Semi-major axis
13,775.7 km
Eccentricity
0.51206
Inclination
49.5521°
RAAN
70.2212°
Arg. of periapsis
230.8079°
True anomaly
129.26299°
Mean anomaly
71.43°
Eccentric anomaly
100.2966°
Mean motion
1.34237 °/min
Orbital period
268.18 mins
BSTAR
0.00030325
Loading maneuver chart data...
Computing Atmospheric mass density...
Loading historical data...
Loading historical data...
Loading historical data...
Loading historical data...
Loading historical data...
Loading historical data...
Loading historical data...
Other satellites on launch #89 in the year 2014 (2014-12-27 UTC)

Documentation

Showing up to 5 results
|